Flag for United Arab Emirates Weather past 2 weeks in Sharjah, Sharjah, United Arab Emirates

Now
99 °F

Passing clouds.


Feels Like: 110 °F
Forecast: 87 / 100 °F
Wind: 9 mph from Northwest

Location: Sharjah International Airport

Current Time: Sep 18, 2014 at 2:17:24 PM

Latest Report: Sep 18, 2014 at 1:00 PM


Visibility: N/A

Pressure: 29.71 "Hg

Humidity: 44%

Dew point: 73 °F

Location of SharjahLocation

Historic Weather in Sharjah — Graph

°F

Sharjah temperature yesterday

Maximum temperature yesterday: 104 °F (at 1:00 PM)
Minimum temperature yesterday: 86 °F (at 5:00 AM)
Average temperature yesterday: 93 °F

Past Weeks' High & Low Weather Summary

 TemperatureHumidityPressure
High111 °F (Sep 4, 1:00 PM)89% (Sep 7, 4:00 AM)29.74 "Hg (Sep 7, 4:00 AM)
Low81 °F (Sep 6, 7:00 AM)10% (Sep 4, 11:00 AM)29.47 "Hg (Sep 5, 2:00 PM)
Average94 °F56%29.60 "Hg
* Reported Sep 3 1:00 PM — Sep 18 1:00 PM, Sharjah, Weather by CustomWeather, © 2014

Note: Actual official high and low records may vary slightly from our data, if they occured in-between our weather recording intervals... More about our weather records

Advertising

Sharjah weather history for previous 24 hours

 ConditionsComfort  
Time TempWeatherWind HumidityBarometerVisibility
1:00 PM
Sep 18
99 °FPassing clouds.9 mph44%29.71 "HgN/A
12:00 PM99 °FPassing clouds.9 mph47%29.71 "HgN/A
11:00 AM99 °FSunny.6 mph39%29.74 "Hg10 mi
10:00 AM97 °FPassing clouds.8 mph39%29.74 "HgN/A
9:00 AM93 °FSunny.10 mph47%29.74 "Hg10 mi
8:00 AM88 °FPassing clouds.7 mph62%29.74 "HgN/A
7:00 AM82 °FClear.5 mph84%29.71 "Hg4 mi
6:00 AM82 °FClear.5 mph89%29.68 "Hg4 mi
5:00 AM82 °FClear.1 mph89%29.65 "Hg5 mi
4:00 AM84 °FClear.3 mph84%29.62 "Hg10 mi
3:00 AM82 °FClear.5 mph84%29.62 "Hg10 mi
2:00 AM84 °FClear.1 mph84%29.62 "Hg10 mi
1:00 AM86 °FPassing clouds.3 mph79%29.62 "HgN/A
12:00 AM88 °FClear.2 mph75%29.65 "Hg10 mi
11:00 PM
Sep 17
88 °FClear.2 mph75%29.65 "Hg10 mi
10:00 PM90 °FClear.1 mph71%29.65 "Hg10 mi
9:00 PM91 °FClear.2 mph71%29.65 "Hg10 mi
8:00 PM91 °FPassing clouds.3 mph71%29.62 "HgN/A
7:00 PM93 °FClear.5 mph63%29.62 "Hg10 mi
6:00 PM95 °FPassing clouds.10 mph56%29.62 "HgN/A
5:00 PM99 °FSunny.14 mph47%29.59 "Hg10 mi
4:00 PM99 °FClear.16 mph44%29.59 "Hg5 mi
3:00 PM100 °FClear.16 mph37%29.59 "Hg4 mi
2:00 PM100 °FClear.14 mph40%29.59 "Hg4 mi
Weather by CustomWeather, © 2014

See weather overviewHow to use our weather pages